Tracking 18984 objects as of 24-Feb-2018
HD Live streaming from Space Station
objects crossing your sky now

FENGYUN 1C DEB

Track FENGYUN 1C DEB now!
10-day predictions


NORAD ID: 36218
Int'l Code: 1999-025DUT
Perigee: 666.1 km
Apogee: 817.3 km
Inclination: 99.0 °
Period: 99.5 minutes
Semi major axis: 7112 km
RCS: 0.0014 m2 (small)
Launch date: May 10, 1999
Source: People's Republic of China (PRC)
Launch site: Taiyaun Space Center, China (TSC)

Note: This is SATELLITE DEBRIS
aabbcc
Your satellite tracking list
Your tracking list is empty




NASA's NSSDC Master Catalog

Two Line Element Set (TLE):
1 36218U 99025DUT 18054.01817715 +.00000284 +00000-0 +86597-4 0  9996
2 36218 099.0377 349.0950 0106264 220.3081 139.0198 14.47282749177725
Source of the keplerian elements: AFSPC